Weather History for Teterboro, NJ

Change the Weather History Date:

Wednesday, February 13, 2013

  Actual Average Record
Temperature  
Mean Temperature 34 °F -  
Max Temperature 44 °F 39 °F 48 °F (2001)
Min Temperature 25 °F 24 °F 14 °F (2006)
Degree Days  
Heating Degree Days 30    
Moisture  
Dew Point 25 °F    
Average Humidity 66    
Maximum Humidity 93    
Minimum Humidity 43    
Precipitation  
Precipitation 0.04 in - - ()
Snow  
Snow 0.00 in - - ()
Snow Depth 2.00 in    
Sea Level Pressure  
Sea Level Pressure 29.84 in    
Wind  
Wind Speed 3 mph (NW)    
Max Wind Speed 9 mph    
Max Gust Speed -    
Visibility 9 miles    
Events Rain , Snow    
Averages and records for this station are not official NWS values.
T = Trace of Precipitation, MM = Missing Value Source: NWS Daily Summary

Daily Weather History Graph

Daily Weather History Graph

Search for Another Location

Airport:

Trip Planner

Search our weather history database for the weather conditions in past years. The results will help you decide how hot, cold, wet, or windy it might be!

Date:

Astronomy

Feb. 13, 2013 Rise Set
Actual Time 6:52 AM EST 5:28 PM EST
Civil Twilight 6:24 AM EST 5:56 PM EST
Nautical Twilight 5:52 AM EST 6:29 PM EST
Astronomical Twilight 5:20 AM EST 7:01 PM EST
Moon 8:18 AM EST (2/13) 9:31 PM EST (2/13)
Length of Visible Light 11h 32m
Length of Day
10h 36m
Waxing Crescent, 13% of the Moon is Illuminated
Feb 13
Waxing Crescent
Feb 17
First Quarter
Feb 25
Full
Mar 4
Last Quarter
Mar 11
New

Hourly Weather History & Observations

Time (EST) Temp. Windchill Dew Point Humidity Pressure Visibility Wind Dir Wind Speed Gust Speed Precip Events Conditions
12:51 AM 34.0 °F 28.0 °F 23.0 °F 64% 29.96 in 10.0 mi WSW 6.9 mph - N/A   Clear
1:51 AM 34.0 °F 28.0 °F 23.0 °F 64% 29.96 in 10.0 mi West 6.9 mph - N/A   Partly Cloudy
2:51 AM 33.1 °F 28.7 °F 23.0 °F 66% 29.96 in 10.0 mi West 4.6 mph - N/A   Clear
3:51 AM 30.0 °F 26.5 °F 24.1 °F 79% 29.96 in 10.0 mi WNW 3.5 mph - N/A   Clear
4:51 AM 30.0 °F - 23.0 °F 75% 29.96 in 10.0 mi Calm Calm - N/A   Clear
5:51 AM 30.9 °F - 24.1 °F 76% 29.96 in 10.0 mi Calm Calm - N/A   Clear
6:51 AM 25.0 °F - 21.9 °F 88% 29.96 in 10.0 mi Calm Calm - N/A   Clear
7:51 AM 32.0 °F - 24.1 °F 73% 29.94 in 10.0 mi Calm Calm - N/A   Clear
8:51 AM 37.0 °F - 24.1 °F 59% 29.93 in 10.0 mi Calm Calm - N/A   Clear
9:51 AM 39.0 °F - 21.0 °F 49% 29.92 in 10.0 mi Calm Calm - N/A   Clear
10:51 AM 39.0 °F - 19.9 °F 46% 29.92 in 10.0 mi Calm Calm - N/A   Clear
11:51 AM 39.0 °F 36.8 °F 23.0 °F 53% 29.91 in 10.0 mi Variable 3.5 mph - N/A   Clear
12:51 PM 39.9 °F - 21.9 °F 49% - 10.0 mi Calm Calm - N/A   Clear
1:51 PM 41.0 °F 39.0 °F 21.9 °F 47% 29.81 in 10.0 mi Variable 3.5 mph - N/A   Clear
2:51 PM 42.1 °F - 21.9 °F 45% 29.80 in 10.0 mi Calm Calm - N/A   Clear
3:51 PM 44.1 °F - 23.0 °F 43% 29.78 in 10.0 mi Calm Calm - N/A   Clear
4:51 PM 39.9 °F - 27.0 °F 60% 29.76 in 10.0 mi Calm Calm - N/A   Scattered Clouds
5:51 PM 39.0 °F 35.7 °F 27.0 °F 62% 29.73 in 10.0 mi Variable 4.6 mph - N/A   Partly Cloudy
6:51 PM 41.0 °F - 27.0 °F 57% 29.73 in 10.0 mi Calm Calm - N/A   Mostly Cloudy
7:51 PM 41.0 °F - 27.0 °F 57% 29.73 in 10.0 mi Calm Calm - N/A   Overcast
8:51 PM 39.9 °F 36.7 °F 27.0 °F 60% 29.74 in 10.0 mi North 4.6 mph - 0.00 in Rain Light Rain Showers
9:51 PM 36.0 °F 29.0 °F 32.0 °F 86% 29.74 in 10.0 mi North 9.2 mph - 0.00 in Rain , Snow Light Rain
10:09 PM 35.6 °F 29.9 °F 33.8 °F 93% 29.72 in 3.0 mi North 6.9 mph - 0.00 in Rain , Snow Light Rain
10:20 PM 33.8 °F 27.7 °F 32.0 °F 93% 29.72 in 3.0 mi North 6.9 mph - 0.01 in Rain , Snow Light Rain
10:51 PM 34.0 °F 28.0 °F 32.0 °F 92% 29.74 in 3.0 mi North 6.9 mph - 0.02 in Rain , Snow Light Rain
11:51 PM 34.0 °F 28.8 °F 32.0 °F 92% 29.74 in 5.0 mi North 5.8 mph - 0.02 in Rain , Snow Light Rain